www.pogodaiklimat.ru

Погода и климат >> Архив погоды >> Колумбия >> Valledupar


ПОГОДА в Valledupar

  • Прогноз погоды в Valledupar
  • Монитор погоды в Valledupar
  • Климат города

АРХИВ ПОГОДЫ в Valledupar

Время (UTC), дата Ветер
(напр.,м/с)
 
Видим.   Явления Облачность Т
(С)
Тd
(С)
f
(%)
Тe
(С)
Тes
(С)
Комфортность P
(гПа)
Po
(гПа)
Тmin
(С)
Tmax
(С)
R
(мм)
R24
(мм)
S
(см)
03 10.12 штиль 0 15 км мгла 8/4 450 м
[Cu Sc Cs]
+29.0 +22.9 70 +39 +39 очень
душно
1011.3 1093.7 +33.2
12 10.12 СВ 2 10 км мгла 5/1 300 м
[Sc Cs]
+23.8 +22.2 91 +31 +32 очень
душно
1096.3 +23.5 4
18 10.12 ЮВ 2 10 км мгла 4/1 600 м
[Cu Sc Ci sp]
+31.9 +20.8 52 +39 +51 опасность
солнечного
удара
1012.0 1094.4
21 10.12 ЮВ 2 10 км мгла 9/3 600 м
[Cu Sc Ac trans Ci sp]
+31.8 +21.5 54 +40 +41 очень
душно
1009.8 1092.2
00 11.12 СВ 4 15 км зарница 9/3 600 м
[Cb cap Ac As Cs]
+28.7 +22.5 69 +38 +38 очень
душно
1012.0 1094.4 +33.6
03 11.12 СВ 4 15 км зарница 9/3 600 м
[Cb cap Ac As Cs]
+28.7 +22.5 69 +38 +38 очень
душно
1012.0 1094.4 +33.6
12 11.12 С 3 10 км мгла 6/3 450 м
[Cu Sc Ci sp]
+24.2 +21.4 84 +31 +31 очень
душно
1014.2 1096.7 +23.3
15 11.12 СВ 5 15 км мгла 5/1 450 м
[Cu Sc Ci sp]
+29.0 +22.0 66 +37 +42 очень
душно
1014.5 1096.0
21 11.12 СВ 3 15 км мгла 8/3 600 м
[Cu Sc Cs]
+32.2 +19.4 47 +38 +39 очень
душно
1011.6 1094.0
00 12.12 СВ 4 15 км мгла 6/3 600 м
[Cu Sc Ac As Cs]
+28.7 +17.7 51 +33 +33 очень
душно
1012.0 1094.4 +34.0
12 12.12 СВ 3 15 км мгла 1/0
[Ci sp]
+22.9 +20.8 88 +30 +31 очень
душно
1014.3 1096.7 +21.2
18 12.12 СВ 2 15 км мгла 1/1 600 м
[Cu Sc]
+32.2 +16.9 40 +36 +48 очень
душно
1012.3 1094.7
21 12.12 ЮЗ 4 15 км мгла 1/1
[Cu Sc]
+33.4 +15.9 35 +36 +38 очень
душно
1010.9 1093.3
00 13.12 штиль 0 15 км мгла 3/3 450 м
[Sc Ci sp]
+27.4 +19.9 64 +34 +34 очень
душно
1012.2 1094.6 +34.6
03 13.12 СВ 5 15 км мгла 1/1 450 м
[Sc Ci sp]
+26.6 +19.4 65 +32 +32 очень
душно
1014.4 1096.8
12 13.12 С 3 15 км мгла 3/3 450 м
[Cu Sc Ci sp]
+23.6 +19.9 80 +29 +29 душно 1015.9 1098.3 +22.6
15 13.12 СВ 5 15 км мгла 1/1 600 м
[Cu Sc]
+28.6 +20.1 60 +35 +40 очень
душно
1016.3 1098.7
18 13.12 В 6 15 км мгла 1/1 600 м
[Cu Sc]
+32.0 +19.3 47 +38 +43 очень
душно
1013.3 1095.7
21 13.12 В 2 15 км мгла 1/1 600 м
[Cu Sc]
+33.4 +18.4 41 +38 +40 очень
душно
1011.0 1093.4
00 14.12 В 3 15 км мгла 3/3 450 м
[Cu Sc]
+28.2 +20.2 62 +35 +35 очень
душно
1012.5 1094.9 +34.0
12 14.12 С 4 15 км мгла 1/0
[Ci sp]
+22.4 +17.2 72 +27 +28 душно 1013.9 1096.3 +21.2
15 14.12 СВ 7 15 км мгла 1/0
[Ci sp]
+28.5 +18.5 55 +34 +37 очень
душно
1014.2 1096.6
18 14.12 В 4 15 км мгла 1/1 600 м
[Cu Sc]
+33.3 +15.9 35 +36 +44 очень
душно
1011.1 1093.5
12 15.12 штиль 0 4000 м слабая морось 10/8 240 м
[Frnb As trans]
+24.4 +24.1 98 +24.2 6
15 15.12 СВ 7 15 км мгла 1/1 600 м
[Sc]
+30.6 +20.2 54 +37 +40 очень
душно
1012.7 1095.1
18 15.12 СВ 9 18 км мгла 1/1 600 м
[Cu Sc]
+33.3 +18.1 41 +38 +39 очень
душно
1010.6 1093.0
21 15.12 СВ 7 18 км мгла 1/1 600 м
[Cu Sc]
+33.1 +17.5 39 +37 +37 очень
душно
1009.3 1091.7
12 16.12 СВ 4 18 км мгла 1/0
[Ci sp]
+23.5 +18.4 73 +28 +28 душно 1013.3 1095.7 +21.7
15 16.12 СВ 8 18 км мгла 1/0
[Ci sp]
+30.8 +16.2 41 +34 +36 очень
душно
1013.6 1096.0
18 16.12 СВ 9 18 км мгла 1/0
[Ci fib]
+34.4 +14.2 30 +36 +37 душно 1010.1 1092.5
21 16.12 СВ 8 18 км мгла 1/1 900 м
[Sc]
+34.8 +10.6 23 +34 +35 очень
жарко
1008.5 1090.9

 

Местоположение метеостанции Valledupar (Колумбия): широта 10.43 долгота -73.25 высота над уровнем моря 138 м.

В архиве по умолчанию представлена погода в Valledupar за последнюю неделю. Архивные данные за месяц целиком и за предыдущие месяцы, начиная с января 2011 года, Вы можете получить, выбрав интересующий диапазон дат из раскрывающегося списка и нажав кнопку "Ввод!".

Внимание! Время в таблицах - всемирное. Для получения местного времени необходимо прибавить поправку, которая в Valledupar равна -5 ч.

Смотрите также архив погоды в соседних городах и на ближайших метеорологических станциях:

Погода в Riohacha (Колумбия) (127 км)
Погода в Santa Marta (Колумбия) (132 км)
Погода в Maracaibo - La Chinit (Венесуэла) (167 км)
Погода в Barranquilla (Колумбия) (175 км)
Погода в Maracaibo - La Canada (Венесуэла) (175 км)
Погода в Cartagena (Колумбия) (247 км)
Погода в Mene Grande (Венесуэла) (263 км)
Погода в El Vigia (Венесуэла) (266 км)
Погода в Cucuta (Колумбия) (290 км)
Погода в San Antonio del Tachira (Венесуэла) (300 км)

Пояснения к столбцам:

Ветер - указаны скорость ветра в м/с - средняя за 10 мин, порывы в срок и между сроками (в фигурных скобках) и направление, откуда дует ветер: С - северный, СВ - северо-восточный, В - восточный, ЮВ - юго-восточный, Ю - южный, ЮЗ - юго-западный, З - западный, СЗ - северо-западный.
Видимость - горизонтальная дальность видимости в метрах или километрах. При видимости от 1 до 10 км при отсутствии осадков обычно наблюдается дымка, при ухудшении видимости до 1 км и менее - туман. В сухую погоду видимость может ухудшаться дымом, пылью или мглою.
Явления - указаны атмосферные явления, наблюдавшиеся в срок или в последний час перед сроком; фигурными скобками обозначены явления, наблюдавшиеся между сроками (за 1-3 часа до срока); квадратными скобками обозначены град или гололедные отложения с указанием их диаметра в мм.
Облачность - указаны через наклонную черту общая и нижняя облачность в баллах и высота нижней границы облаков в метрах; квадратными скобками обозначены формы облаков: Ci - перистые, Cs - перисто-слоистые, Cc - перисто-кучевые, Ac - высококучевые, As - высокослоистые, Sc - слоисто-кучевые, Ns - слоисто-дождевые, Cu - кучевые, Cb - кучево-дождевые. Подробнее классификацию облаков см. в Атласе облаков (PDF).
T - Температура воздуха - температура, измеренная на высоте 2 м над землей.
Td - Температура точки росы - температура, при понижении до которой содержащийся в воздухе водяной пар достигнет насыщения.
f - Относительная влажность воздуха - влажноcть воздуха, измеренная на высоте 2 м над землей.
Te - Эффективная температура - температура, которую ощущает одетый по сезону человек в тени. Характеристика душности погоды. При расчете учитывается влияние влажности воздуха и скорости ветра на теплоощущения человека.
Tes - Эффективная температура на солнце - температура, которую ощущает человек, с поправкой на солнечный нагрев. Характеристика знойности погоды. Зависит от высоты солнца над горизонтом, облачности и скорости ветра. Ночью, в пасмурную погоду, а также при ветре 12 м/с и более поправка равна нулю.
P - Атмосферное давление - приведенное к уровню моря атмосферное давление.
Po - Атмосферное давление - измеренное на уровне метеостанции атмосферное давление.
Tmin - Минимальная температура - минимум температуры воздуха на высоте 2 м над землей.
Tmax - Максимальная температура - максимум температуры воздуха на высоте 2 м над землей.
R - Количество осадков - Количество выпавших осадков за период времени, мм. При наведении курсора мыши на число - период времени, за который выпало указанное количество осадков.
R24 - Количество осадков - Количество выпавших осадков за 24 часа, мм.
S - Снежный покров - Высота снежного покрова, см. При наведении курсора мыши на число - состояние снежного покрова и степень покрытия местности в баллах.